Location: Brookfield Center
(41.2406°N, 80.5579°W)
Time: 13:17:56
(UTC+00:00)

EXPRESS MD2 - Pass Details

Date: 18 January 2020
Orbit: 262 x 4042 km, 49.9° (Epoch: 16 February)

Event Time Altitude Azimuth Distance (km) Brightness Sun altitude
Exits shadow 11:09:04 29° 356° (N) 738 3.8 -17.7°
Drops below altitude 10° 11:10:50 10° 39° (NE) 1,227 5.4 -17.4°
Sets 11:12:32 0° 52° (NE) 1,934 6.7 -17.0°
